Home   Weather   New Salem   Past weeks

Flag for USA Past Weather in New Salem, North Dakota, USA — Yesterday and Last 2 Weeks

Now
37 °F

Overcast.


Feels Like: 29 °F
Forecast: 25 / 41 °F
Wind: 12 mph from Northeast

Location: Bismarck Municipal Airport

Current Time: Apr 25, 2017 at 9:39:11 pm

Latest Report: Apr 25, 2017 at 8:52 pm


Visibility: 10 mi

Pressure: 29.95 "Hg (27.59 "Hg at 664m altitude)

Humidity: 67%

Dew Point: 27 °F

Location of New SalemLocation

Past Weather in New Salem — Graph

°F

New Salem Temperature Yesterday

Maximum temperature yesterday: 40 °F (at 2:52 pm)
Minimum temperature yesterday: 33 °F (at 12:52 am)
Average temperature yesterday: 36 °F

High & Low Weather Summary for the Past Weeks

 TemperatureHumidityPressure
High76 °F (Apr 14, 2:52 pm)100% (Apr 20, 11:52 pm)30.33 "Hg (Apr 20, 11:52 pm)
Low21 °F (Apr 17, 4:52 am)17% (Apr 12, 2:52 pm)29.61 "Hg (Apr 14, 2:52 pm)
Average45 °F70%30.03 "Hg
* Reported Apr 10 7:52 pm — Apr 25 7:52 pm, New Salem, Weather by CustomWeather, © 2017

Note: Actual official high and low records may vary slightly from our data, if they occured in-between our weather recording intervals... More about our weather records

Advertising

New Salem Weather History for the Previous 24 Hours

Scroll right to see more
 ConditionsComfort  
Time TempWeatherWind HumidityBarometerVisibility
7:52 pm
Tue, Apr 25
37 °FOvercast.12 mph67%29.94 "Hg10 mi
6:52 pm36 °FOvercast.13 mph67%29.95 "Hg10 mi
5:52 pm36 °FMostly cloudy.15 mph67%29.95 "Hg10 mi
4:52 pm35 °FOvercast.15 mph70%29.97 "Hg10 mi
3:52 pm34 °FOvercast.16 mph70%29.95 "Hg10 mi
2:52 pm33 °FOvercast.20 mph75%29.93 "Hg10 mi
1:52 pm34 °FOvercast.17 mph73%29.93 "Hg10 mi
1:38 pm34 °FOvercast.15 mph73%29.88 "Hg10 mi
12:52 pm32 °FOvercast.14 mph79%29.93 "Hg10 mi
11:52 am32 °FOvercast.13 mph82%29.93 "Hg10 mi
10:52 am31 °FOvercast.18 mph82%29.93 "Hg10 mi
9:52 am31 °FOvercast.15 mph82%29.89 "Hg10 mi
8:52 am30 °FOvercast.22 mph82%29.87 "Hg10 mi
7:52 am30 °FOvercast.20 mph85%29.86 "Hg10 mi
7:33 am30 °FLow clouds.18 mph85%29.81 "Hg10 mi
6:52 am31 °FOvercast.17 mph85%29.86 "Hg10 mi
5:52 am31 °FOvercast.20 mph89%29.84 "Hg10 mi
5:28 am31 °FMostly cloudy.18 mph89%29.78 "Hg10 mi
4:52 am32 °FOvercast.14 mph85%29.84 "Hg10 mi
3:52 am32 °FOvercast.15 mph82%29.82 "Hg10 mi
2:52 am33 °FOvercast.15 mph85%29.80 "Hg10 mi
1:52 am34 °FOvercast.16 mph82%29.80 "Hg10 mi
1:21 am34 °FOvercast.13 mph85%29.76 "Hg10 mi
1:04 am34 °FMostly cloudy.10 mph82%29.75 "Hg10 mi
11:52 pm
Mon, Apr 24
34 °FOvercast.10 mph85%29.79 "Hg10 mi
10:52 pm35 °FMostly cloudy.16 mph82%29.79 "Hg10 mi
10:06 pm35 °FOvercast.15 mph82%29.74 "Hg10 mi
9:12 pm35 °FOvercast.9 mph82%29.73 "Hg10 mi
Weather by CustomWeather, © 2017

See weather overviewHow to use our weather pages